KAZMOHAV2 Weather Reports


time (UTC)temp
C
wind
direction
speed
KPH
gust
KPH
rain 1hr
cm
rain 24hr
cm
rain mn
cm
humidity
%
barometer
mb
20260504194559 23 0 0.0 0.0 0.00 0.00 0.00 30 1009.4
20260504193104 23 0 0.0 0.0 0.00 0.00 0.00 29 1009.6
20260504191555 23 0 0.0 0.0 0.00 0.00 0.00 31 1009.5
20260504190106 23 0 0.0 0.0 0.00 0.00 0.00 31 1009.6
20260504184550 23 0 0.0 0.0 0.00 0.00 0.00 32 1009.8
20260504183101 23 0 0.0 0.0 0.00 0.00 0.00 30 1009.9
20260504181551 23 0 0.0 0.0 0.00 0.00 0.00 31 1010.1
20260504180131 23 0 0.0 0.0 0.00 0.00 0.00 32 1010.1
20260504174552 22 0 0.0 0.0 0.00 0.00 0.00 33 1010.1
20260504173049 22 0 0.0 0.0 0.00 0.00 0.00 35 1010.0
20260504171552 21 0 0.0 0.0 0.00 0.00 0.00 35 1009.9
20260504120108 22 0 0.0 0.0 0.00 0.00 0.00 32 1006.7
20260504081551 26 0 0.0 0.0 0.00 0.00 0.00 20 1005.7
20260504044554 30 0 0.0 0.0 0.00 0.00 0.00 17 1003.4
20260504043101 30 0 0.0 0.0 0.00 0.00 0.00 16 1003.5
20260504041549 31 0 0.0 0.0 0.00 0.00 0.00 15 1003.3
20260504034555 31 0 0.0 0.0 0.00 0.00 0.00 15 1003.1
20260504033056 31 0 0.0 0.0 0.00 0.00 0.00 15 1002.9
20260504031549 31 0 0.0 0.0 0.00 0.00 0.00 15 1002.6
20260504030052 32 0 0.0 0.0 0.00 0.00 0.00 15 1002.4
20260504024550 32 0 0.0 0.0 0.00 0.00 0.00 15 1002.2
20260504023051 32 0 0.0 1.6 0.00 0.00 0.00 16 1002.1
20260504021557 32 0 0.0 0.0 0.00 0.00 0.00 16 1002.1
20260504014557 32 0 0.0 0.0 0.00 0.00 0.00 15 1002.0
20260504013053 33 0 0.0 0.0 0.00 0.00 0.00 14 1002.0
20260504011552 33 0 0.0 0.0 0.00 0.00 0.00 14 1002.0
20260504010052 33 0 0.0 0.0 0.00 0.00 0.00 13 1002.0
20260504004554 33 0 0.0 0.0 0.00 0.00 0.00 13 1002.1
20260504003051 33 0 0.0 0.0 0.00 0.00 0.00 12 1002.3
20260504001553 33 0 0.0 0.0 0.00 0.00 0.00 11 1002.5
20260504000054 33 0 0.0 0.0 0.00 0.00 0.00 11 1002.4
20260503234554 34 0 0.0 0.0 0.00 0.00 0.00 10 1002.6
20260503233050 34 0 0.0 1.6 0.00 0.00 0.00 11 1002.4
20260503231553 34 0 0.0 1.6 0.00 0.00 0.00 11 1002.6
20260503230105 34 0 0.0 0.0 0.00 0.00 0.00 10 1002.4
20260503224555 34 0 0.0 1.6 0.00 0.00 0.00 9 1002.6
20260503223052 34 0 0.0 0.0 0.00 0.00 0.00 9 1002.8
20260503221601 34 0 0.0 0.0 0.00 0.00 0.00 10 1003.2
20260503220053 34 0 0.0 0.0 0.00 0.00 0.00 10 1003.3
20260503214550 34 0 0.0 1.6 0.00 0.00 0.00 10 1003.6
20260503213100 34 0 0.0 1.6 0.00 0.00 0.00 11 1003.9
20260503211609 34 0 0.0 0.0 0.00 0.00 0.00 11 1004.0
20260503210052 34 0 0.0 1.6 0.00 0.00 0.00 11 1004.4
20260503204552 34 0 0.0 0.0 0.00 0.00 0.00 11 1004.5
20260503203052 34 0 0.0 0.0 0.00 0.00 0.00 11 1004.6
20260503201554 34 0 0.0 1.6 0.00 0.00 0.00 10 1004.7
20260503200101 33 0 0.0 1.6 0.00 0.00 0.00 14 1004.9